Location: Unspecified
(58.9933°N, 5.6375°E)
Time: 11:22:40
(UTC+02:00)

Okean 3 - Visible Passes

Search period start: 23 October 2014 00:00
Search period end: 01 November 2014 23:00
Orbit: 584 x 608 km, 82.5° (Epoch: 22 October)

Date Brightness Start Highest point End Pass type
(mag) Time Alt. Az. Time Alt. Az. Time Alt. Az.
24 Oct 6.5 06:45:45 10° NNE 06:47:22 12° NE 06:48:59 10° ENE visible
25 Oct 6.3 06:55:19 10° NNE 06:57:50 15° NE 07:00:19 10° E visible
26 Oct 6.2 06:05:07 10° N 06:08:14 19° NE 06:11:19 10° ESE visible
27 Oct 5.8 06:15:02 10° N 06:18:35 24° ENE 06:22:06 10° ESE visible
28 Oct 5.4 06:25:00 10° N 06:28:54 31° ENE 06:32:44 10° SE visible
29 Oct 6.7 04:59:42 10° NNE 05:00:31 10° NE 05:01:19 10° NE visible
29 Oct 4.8 06:35:02 10° N 06:39:09 42° ENE 06:43:12 10° SE visible
30 Oct 6.4 05:08:50 10° NNE 05:10:57 13° NE 05:13:03 10° ENE visible
30 Oct 4.2 06:45:05 10° N 06:49:21 57° ENE 06:53:33 10° SSE visible
31 Oct 6.3 05:18:31 10° NNE 05:21:21 17° NE 05:24:09 10° E visible
31 Oct 3.7 06:55:11 10° NNW 06:59:30 79° ENE 07:03:46 10° SSE visible
01 Nov 6.0 05:28:21 10° N 05:31:41 21° ENE 05:34:59 10° ESE visible
01 Nov 3.5 07:05:18 10° NNW 07:09:36 75° W 07:13:51 10° S visible
